CZ-11 DEB (44327 NORAD) Tracking and Keplerian Element Data

This shows tracking and keplerian element data for the satellite.

Feedback or suggestion? Click here.




ElementValue
Catalog44327
NameCZ-11 DEB
Epoch Orbit355
Epoch Day186.20365047
Epoch Year2019
RAAN132.4311
Inclination44.9125
Eccentricity0.0233956
Argument of Perigee118.214
Mean Anonmoly244.2588
Mean Motion15.46248913
Decay Rate0.00138795
L11 44327U 19032P 19186.20365047 .00138795 13383-4 91667-3 0 9994
L22 44327 44.9125 132.4311 0233956 118.2140 244.2588 15.46248913 3556

Live tracking and technical data element details for CZ-11 DEB (NORAD 44327). CZ-11 DEB can be tracked NOW for your location showing map with azimuth and elevation plus other details from your city location.

Track the satellite on the map from your city or location and see movement details for azimuth, elevation, latitude, longitude, range, height, and movement on the map or in text.







IsCatalogInMostPopularTable: catalog: 44327, numindb: 10
Update: records affected: 1



GetName: 44327 CZ-11 DEB

Hit Count: updated at: Sun, 21 Jul 2019 21:29:53 GMT